Regional Weather Roundup
Issued by NWS

Home | Current Version | Previous Version | Text Only | Print | Product List | Glossary Off
Versions: 1 2 3 4 5 6 7 8 9 10 11 12 13 14 15 16 17 18 19 20 21 22 23 24 25 26 27 28 29 30 31 32 33 34 35 36 37 38 39 40 41 42 43 44 45 46 47 48 49 50

000
ASUS43 KOAX 250210
RWRNE

WEATHER ROUNDUP FOR NEBRASKA
NATIONAL WEATHER SERVICE OMAHA NE
900 PM CDT FRI APR 24 2015

NOTES: SATELLITE DATA IS BEING USED TO AUGMENT CLOUD COVER ABOVE
       12000 FEET.
       "FAIR" INDICATES FEW OR NO CLOUDS BELOW 12,000 FEET WITH NO
       SIGNIFICANT WEATHER AND/OR OBSTRUCTIONS TO VISIBILITY.

  * THESE STATIONS DO NOT REPORT WEATHER SUCH AS RAIN...SNOW OR FOG.

NEZ001>004-019>022-054>056-250300-
NEBRASKA PANHANDLE

CITY           SKY/WX    TMP DP  RH WIND       PRES   REMARKS
SCOTTSBLUFF    CLOUDY    53  44  71 W3        29.60S
ALLIANCE       CLOUDY    53  45  74 NW9       29.60R
CHADRON        CLOUDY    53  44  71 E6        29.58R
KIMBALL        CLOUDY    51  39  62 CALM      29.62S
SIDNEY         CLOUDY    55  37  50 NW20      29.60S
$$

NEZ057>060-069>072-079>082-250300-
SOUTHWEST NEBRASKA

CITY           SKY/WX    TMP DP  RH WIND       PRES   REMARKS
IMPERIAL       CLOUDY    61  36  39 W9        29.50S
LEXINGTON      MOCLDY    59  55  87 E7        29.49S
MCCOOK         CLOUDY    62  52  69 CALM      29.49R
OGALLALA       CLOUDY    61  43  52 W13G21    29.53R
$$

NEZ005>010-023>029-035>040-094-250300-
NORTH CENTRAL NEBRASKA

CITY           SKY/WX    TMP DP  RH WIND       PRES   REMARKS
VALENTINE      LGT RAIN  64  44  48 NW12      29.51R
AINSWORTH      CLOUDY    61  43  52 S9        29.49R THUNDER
BROKEN BOW     MOCLDY    60  53  77 E6        29.51R
O`NEILL        CLOUDY    63  46  54 S13       29.50R
ORD            MOCLDY    62  54  74 SE6       29.52R
THEDFORD       CLOUDY    57  48  72 SE9       29.50R
$$

NEZ041-046>049-061>064-073>077-083>087-250300-
SOUTH CENTRAL NEBRASKA

CITY           SKY/WX    TMP DP  RH WIND       PRES   REMARKS
GRAND ISLAND   CLOUDY    59  55  87 E6        29.50F
AURORA         CLOUDY    59  56  89 E8        29.50F
HASTINGS       CLOUDY    58  55  90 E9        29.49F
HEBRON         CLOUDY    58  54  87 E6        29.52R
HOLDREGE       CLOUDY    58  55  88 E6        29.50R
KEARNEY *      CLOUDY    57  54  88 E10       29.50F
YORK           CLOUDY    59  55  88 E10       29.51F
$$

NEZ011>018-030>034-042>045-250300-
NORTHEAST NEBRASKA

CITY           SKY/WX    TMP DP  RH WIND       PRES   REMARKS
NORFOLK        CLOUDY    63  55  75 S14       29.52S
ALBION         CLOUDY    62  54  75 S7        29.53R
BLAIR          CLOUDY    58  51  77 SE10      29.54F
COLUMBUS *     MOCLDY    59  52  77 S7        29.54F
FREMONT        CLOUDY    60  52  73 E8        29.54S
TEKAMAH        MOCLDY    60  50  69 SE12      29.55F
WAYNE          CLOUDY    63  53  69 S13       29.53F
$$

NEZ050>053-065>068-078-088>093-250300-
SOUTHEAST NEBRASKA

CITY           SKY/WX    TMP DP  RH WIND       PRES   REMARKS
LINCOLN        CLOUDY    58  54  86 SE10      29.54S
OMAHA EPPLEY   CLOUDY    59  53  80 SE13      29.54F
BEATRICE       CLOUDY    58  54  86 E10       29.52R
FALLS CITY     CLOUDY    60  53  77 E12       29.56R
NEBRASKA CITY  CLOUDY    57  50  76 E10       29.56F
PLATTSMOUTH    CLOUDY    56  52  87 E7        29.55F
$$

NEZ044-045-051>053-067-250300-
OMAHA AREA

CITY           SKY/WX    TMP DP  RH WIND       PRES   REMARKS
OMAHA EPPLEY   CLOUDY    59  53  80 SE13      29.54F
BLAIR          CLOUDY    58  51  77 SE10      29.54F
FREMONT        CLOUDY    60  52  73 E8        29.54S
MILLARD        CLOUDY    59  54  83 E8        29.54F
OFFUTT AFB     CLOUDY    57  53  85 E12       29.55F
PLATTSMOUTH    CLOUDY    56  52  87 E7        29.55F
WAHOO          CLOUDY    58  51  77 SE10      29.52F
$$


USA.gov is the U.S. government's official web portal to all federal, state and local government web resources and services.